Overview Statistics Trail Chart Weather Telemetry Raw packets
 

This is the latest recevied weather packets stored in our database for station/object SV9TNF-55. If no packets are shown the sender has not sent any weather packets the latest 10 day(s).

<< 50 51 52 53 54 55 56 >>
Time Temp. Humidity Pressure Rain* Wind** Luminosity Snow
1787886292 21.11° C 51% 1013.9 hPa 0 mm 6.71 m/s, 292° - -
1787885691 21.11° C 51% 1014 hPa 0 mm 5.81 m/s, 292° - -
1787885092 21.11° C 53% 1014.2 hPa 0 mm 6.26 m/s, 292° - -
1787884491 21.11° C 54% 1014 hPa 0 mm 5.36 m/s, 292° - -
1787883891 21.11° C 56% 1014.2 hPa 0 mm 5.36 m/s, 292° - -
1787883292 21.11° C 56% 1014.3 hPa 0 mm 5.36 m/s, 292° - -
1787882691 21.11° C 57% 1014.3 hPa 0 mm 6.26 m/s, 292° - -
1787882091 21.67° C 59% 1014.1 hPa 0 mm 6.26 m/s, 292° - -
1787881492 21.67° C 59% 1014.2 hPa 0 mm 6.71 m/s, 292° - -
1787880891 21.67° C 56% 1014.3 hPa 0 mm 7.6 m/s, 292° - -
1787880291 21.67° C 58% 1014.3 hPa 0 mm 5.81 m/s, 292° - -
1787879691 21.67° C 59% 1014.6 hPa 0 mm 6.26 m/s, 292° - -
1787879090 21.67° C 58% 1014.4 hPa 0 mm 5.36 m/s, 292° - -
1787878491 21.67° C 58% 1014.5 hPa 0 mm 5.81 m/s, 292° - -
1787877891 21.67° C 58% 1014.2 hPa 0 mm 6.71 m/s, 292° - -
1787877291 21.67° C 58% 1014.5 hPa 0 mm 3.58 m/s, 270° - -
1787876690 21.67° C 57% 1014.4 hPa 0 mm 5.81 m/s, 292° - -
1787876091 22.22° C 58% 1014.8 hPa 0 mm 5.36 m/s, 292° - -
1787875490 22.22° C 57% 1014.8 hPa 0 mm 6.26 m/s, 292° - -
1787874890 22.22° C 56% 1014.7 hPa 0 mm 6.26 m/s, 292° - -
1787874290 22.22° C 56% 1015.1 hPa 0 mm 6.71 m/s, 270° - -
1787873689 22.78° C 55% 1014.9 hPa 0 mm 7.15 m/s, 292° - -
1787873089 22.78° C 55% 1015.1 hPa 0 mm 6.26 m/s, 270° - -
1787872490 22.78° C 54% 1015.1 hPa 0 mm 6.26 m/s, 292° - -
1787871890 22.78° C 53% 1015.2 hPa 0 mm 6.26 m/s, 292° - -

* Rain latest hour (hover to see other rain measurements)
** Current wind speed in m/s (hover to see current wind gust speed)